sat.trackr.live / text

‹ back to catalog

STARLINK-37186

NORAD 68617 · 2026-073R

PAYLOAD ACTIVE UNKNOWN

§ Identity

Operator
Country
US
Launch date
2026-04-07
Launch site
AFWTR
Launch vehicle
Mass (kg)
RCS (m²)

Purposes: comms

External: N2YO · Heavens-Above · Gunter

§ Orbital elements

Epoch: 2026-05-25T04:00:03.998880Z

Period
92.95 min
Inclination
97.2855°
Eccentricity
0.0001635
Mean motion
15.49194738 rev/d
Perigee alt
418.0 km
Apogee alt
420.2 km
Semi-major
6,797.2 km
B*
-3.0940e-4
RAAN
344.6816°
Arg perigee
99.2664°
Mean anomaly
266.1841°
Rev number
601

§ Raw data

STARLINK-371861 68617U 26073R   26145.16671295 -.00016886  00000+0 -30940-3 0  99902 68617  97.2855 344.6816 0001635  99.2664 266.1841 15.49194738  6015

JSON: /api/v1/satellites/68617 · /tle

For live sub-satellite position, see the globe view (requires WebGL).

§ Visibility from observer

Set your observer location to see the next 7 days of passes ≥ 10°. The values pass through the URL so the page stays shareable.

No JS? Fill the form by hand. The geolocation button needs JavaScript.